When you browse on this site, cookies collect data to enhance your experience and personalize the content and advertising you see.
Visit our Privacy Policy to learn more. By continuing to use the site, you agree to this use of cookies and data.

Hourly Weather Piwoda

Today, 7 July, Tuesday

Time Temperature Precipitation Wind Pressure Humidity
00:00 +16°C° 2.1 mm 5 mps 740 mmHg 90%
01:00 +17°C° 2.1 mm 4 mps 741 mmHg 92%
02:00 +14°C° 0 mm 3 mps 742 mmHg 92%
03:00 +16°C° 1.1 mm 3 mps 742 mmHg 91%
04:00 +16°C° 1.1 mm 3 mps 742 mmHg 91%
05:00 +16°C° 1.1 mm 3 mps 742 mmHg 91%
06:00 +14°C° 0.5 mm 4 mps 742 mmHg 90%
07:00 +14°C° 0.5 mm 4 mps 743 mmHg 90%
08:00 +14°C° 0 mm 4 mps 743 mmHg 90%
09:00 +14°C° 0.9 mm 4 mps 743 mmHg 88%
10:00 +14°C° 0.9 mm 4 mps 744 mmHg 86%
11:00 +15°C° 0.9 mm 4 mps 744 mmHg 84%
12:00 +17°C° 0.4 mm 4 mps 744 mmHg 80%
13:00 +17°C° 0.4 mm 4 mps 744 mmHg 75%
14:00 +18°C° 0.4 mm 4 mps 744 mmHg 71%
15:00 +18°C° 0.2 mm 4 mps 744 mmHg 70%
16:00 +19°C° 0.2 mm 4 mps 744 mmHg 69%
17:00 +19°C° 0.2 mm 4 mps 744 mmHg 68%
18:00 +18°C° 0.2 mm 3 mps 744 mmHg 73%
19:00 +17°C° 0.2 mm 3 mps 744 mmHg 78%
20:00 +15°C° 0.2 mm 2 mps 745 mmHg 84%
21:00 +14°C° 0 mm 2 mps 745 mmHg 86%
22:00 +13°C° 0 mm 2 mps 745 mmHg 87%
23:00 +12°C° 0 mm 2 mps 745 mmHg 89%

Tomorrow, 8 July, Wednesday

Time Temperature Precipitation Wind Pressure Humidity
00:00 +12°C° 0 mm 2 mps 746 mmHg 90%
01:00 +12°C° 0 mm 2 mps 746 mmHg 91%
02:00 +10°C° 0 mm 2 mps 746 mmHg 92%
03:00 +10°C° 0 mm 2 mps 746 mmHg 92%
04:00 +10°C° 0 mm 2 mps 746 mmHg 92%
05:00 +9°C° 0 mm 2 mps 746 mmHg 93%
06:00 +12°C° 0 mm 2 mps 746 mmHg 87%
07:00 +14°C° 0 mm 2 mps 746 mmHg 82%
08:00 +16°C° 0 mm 2 mps 746 mmHg 77%
09:00 +17°C° 0 mm 3 mps 746 mmHg 72%
10:00 +18°C° 0 mm 3 mps 746 mmHg 67%
11:00 +19°C° 0 mm 3 mps 746 mmHg 63%
12:00 +20°C° 0.1 mm 4 mps 746 mmHg 62%
13:00 +20°C° 0.1 mm 4 mps 746 mmHg 62%
14:00 +21°C° 0.1 mm 5 mps 745 mmHg 61%
15:00 +21°C° 0.1 mm 4 mps 745 mmHg 64%
16:00 +20°C° 0.1 mm 3 mps 745 mmHg 67%
17:00 +20°C° 0.1 mm 3 mps 745 mmHg 70%
18:00 +19°C° 0.2 mm 2 mps 745 mmHg 75%
19:00 +18°C° 0.2 mm 2 mps 746 mmHg 79%
20:00 +17°C° 0.2 mm 2 mps 746 mmHg 83%
21:00 +16°C° 0.2 mm 2 mps 746 mmHg 86%
22:00 +15°C° 0.2 mm 2 mps 746 mmHg 90%
23:00 +14°C° 0.2 mm 2 mps 746 mmHg 94%

Day after tomorrow, 9 July, Thursday

Time Temperature Precipitation Wind Pressure Humidity
00:00 +14°C° 0.7 mm 2 mps 746 mmHg 95%
01:00 +14°C° 0.7 mm 2 mps 746 mmHg 96%
02:00 +14°C° 0.7 mm 2 mps 746 mmHg 97%
03:00 +14°C° 0.5 mm 2 mps 746 mmHg 97%
04:00 +14°C° 0.5 mm 1 mps 746 mmHg 97%
05:00 +14°C° 0.5 mm 1 mps 746 mmHg 97%
06:00 +14°C° 0 mm 1 mps 747 mmHg 94%
07:00 +15°C° 0 mm 1 mps 747 mmHg 91%
08:00 +16°C° 0 mm 1 mps 747 mmHg 88%
09:00 +16°C° 0 mm 2 mps 748 mmHg 84%
10:00 +17°C° 0 mm 2 mps 748 mmHg 80%
11:00 +18°C° 0 mm 2 mps 748 mmHg 76%
12:00 +19°C° 0.1 mm 2 mps 748 mmHg 73%
13:00 +20°C° 0.1 mm 2 mps 748 mmHg 70%
14:00 +21°C° 0.1 mm 2 mps 747 mmHg 67%
15:00 +21°C° 0 mm 2 mps 747 mmHg 66%
16:00 +21°C° 0 mm 2 mps 747 mmHg 65%
17:00 +21°C° 0 mm 2 mps 747 mmHg 65%
18:00 +21°C° 0 mm 1 mps 747 mmHg 70%
19:00 +20°C° 0 mm 1 mps 747 mmHg 75%
20:00 +19°C° 0 mm 1 mps 747 mmHg 80%
21:00 +19°C° 0 mm 1 mps 747 mmHg 81%
22:00 +18°C° 0 mm 1 mps 747 mmHg 82%
23:00 +18°C° 0 mm 1 mps 747 mmHg 83%

10 July, Friday

Time Temperature Precipitation Wind Pressure Humidity
00:00 +16°C° 0 mm 1 mps 747 mmHg 86%
01:00 +16°C° 0 mm 1 mps 747 mmHg 89%
02:00 +15°C° 0 mm 1 mps 747 mmHg 92%
03:00 +16°C° 0 mm 2 mps 747 mmHg 91%
04:00 +16°C° 0 mm 2 mps 747 mmHg 90%
05:00 +16°C° 0 mm 2 mps 747 mmHg 89%
06:00 +18°C° 0.1 mm 2 mps 747 mmHg 87%
07:00 +19°C° 0.1 mm 3 mps 747 mmHg 86%
08:00 +20°C° 0.1 mm 3 mps 747 mmHg 85%
09:00 +21°C° 0.3 mm 3 mps 747 mmHg 81%
10:00 +24°C° 0.3 mm 3 mps 746 mmHg 77%
11:00 +25°C° 0.3 mm 4 mps 746 mmHg 74%
12:00 +26°C° 0.9 mm 4 mps 746 mmHg 71%
13:00 +27°C° 0.9 mm 4 mps 746 mmHg 68%
14:00 +28°C° 0.9 mm 4 mps 745 mmHg 66%
15:00 +28°C° 0.2 mm 4 mps 745 mmHg 66%
16:00 +28°C° 0.2 mm 4 mps 745 mmHg 67%
17:00 +28°C° 0.2 mm 4 mps 744 mmHg 67%
18:00 +27°C° 0.1 mm 4 mps 744 mmHg 72%
19:00 +26°C° 0.1 mm 4 mps 744 mmHg 76%
20:00 +23°C° 0.1 mm 4 mps 744 mmHg 81%
21:00 +22°C° 0 mm 4 mps 744 mmHg 80%
22:00 +21°C° 0 mm 4 mps 744 mmHg 80%
23:00 +20°C° 0 mm 4 mps 745 mmHg 80%

11 July, Saturday

Time Temperature Precipitation Wind Pressure Humidity
00:00 +20°C° 0 mm 3 mps 744 mmHg 80%
01:00 +20°C° 0 mm 3 mps 744 mmHg 81%
02:00 +19°C° 0 mm 3 mps 744 mmHg 82%
03:00 +19°C° 0 mm 2 mps 745 mmHg 84%
04:00 +19°C° 0 mm 2 mps 745 mmHg 86%
05:00 +19°C° 0 mm 1 mps 745 mmHg 88%
06:00 +19°C° 0 mm 2 mps 745 mmHg 86%
07:00 +20°C° 0 mm 2 mps 746 mmHg 84%
08:00 +22°C° 0 mm 3 mps 746 mmHg 82%
09:00 +21°C° 0 mm 3 mps 747 mmHg 83%
10:00 +21°C° 0 mm 3 mps 747 mmHg 83%
11:00 +21°C° 0 mm 4 mps 748 mmHg 84%
12:00 +20°C° 0 mm 4 mps 748 mmHg 84%
13:00 +19°C° 0 mm 5 mps 748 mmHg 83%
14:00 +17°C° 0 mm 5 mps 748 mmHg 83%
15:00 +18°C° 0 mm 4 mps 748 mmHg 81%
16:00 +18°C° 0 mm 4 mps 748 mmHg 80%
17:00 +18°C° 0 mm 3 mps 749 mmHg 78%
18:00 +17°C° 0 mm 3 mps 749 mmHg 79%
19:00 +16°C° 0 mm 2 mps 749 mmHg 80%
20:00 +16°C° 0 mm 1 mps 749 mmHg 81%
21:00 +15°C° 0 mm 1 mps 749 mmHg 81%
22:00 +15°C° 0 mm 2 mps 749 mmHg 81%
23:00 +15°C° 0 mm 2 mps 750 mmHg 80%

12 July, Sunday

Time Temperature Precipitation Wind Pressure Humidity
00:00 +14°C° 0.5 mm 1 mps 749 mmHg 84%
01:00 +14°C° 0.5 mm 1 mps 749 mmHg 87%
02:00 +14°C° 0.5 mm 1 mps 749 mmHg 90%
03:00 +14°C° 0.5 mm 1 mps 749 mmHg 92%
04:00 +13°C° 0.5 mm 1 mps 749 mmHg 93%
05:00 +13°C° 0.5 mm 1 mps 749 mmHg 94%
06:00 +13°C° 1.1 mm 1 mps 750 mmHg 94%
07:00 +13°C° 1.1 mm 1 mps 750 mmHg 95%
08:00 +13°C° 1.1 mm 1 mps 750 mmHg 95%
09:00 +14°C° 0.3 mm 1 mps 750 mmHg 93%
10:00 +14°C° 0.4 mm 1 mps 750 mmHg 91%
11:00 +15°C° 0.4 mm 1 mps 750 mmHg 88%
12:00 +16°C° 0.2 mm 1 mps 750 mmHg 85%
13:00 +18°C° 0.2 mm 1 mps 750 mmHg 82%
14:00 +17°C° 0.2 mm 2 mps 750 mmHg 78%
15:00 +18°C° 0.3 mm 2 mps 750 mmHg 77%
16:00 +18°C° 0.3 mm 2 mps 750 mmHg 76%
17:00 +18°C° 0.3 mm 2 mps 750 mmHg 75%
18:00 +19°C° 0.3 mm 1 mps 750 mmHg 79%
19:00 +18°C° 0.3 mm 1 mps 750 mmHg 83%
20:00 +16°C° 0.3 mm 1 mps 750 mmHg 87%
21:00 +15°C° 0 mm 1 mps 750 mmHg 87%
22:00 +14°C° 0 mm 1 mps 750 mmHg 88%
23:00 +13°C° 0 mm 2 mps 751 mmHg 89%
Show more